H1 CPF 2 NER 2025 9 1 9 244 01 glonass135 H2 1600801 9135 41330 2025 9 1 0 0 0 2025 9 4 23 45 0 900 1 1 0 0 0 1 H9 10 0 60919 0.00000 0 -24478805.195 5664807.231 -4223355.482 10 0 60919 900.00000 0 -23745845.287 5587782.980 -7351042.444 10 0 60919 1800.00000 0 -22675011.292 5307168.070 -10335416.402 10 0 60919 2700.00000 0 -21311837.244 4785820.668 -13118312.312 10 0 60919 3600.00000 0 -19710543.762 3996824.245 -15645521.086 10 0 60919 4500.00000 0 -17931766.635 2924884.554 -17867854.784 10 0 60919 5400.00000 0 -16040035.613 1567232.523 -19742109.374 10 0 60919 6300.00000 0 -14101110.789 -66005.918 -21231905.932 10 0 60919 7200.00000 0 -12179289.583 -1951989.020 -22308393.955 10 0 60919 8100.00000 0 -10334797.958 -4055879.980 -22950803.672 10 0 60919 9000.00000 0 -8621375.282 -6332078.899 -23146837.512 10 0 60919 9900.00000 0 -7084153.445 -8725913.988 -22892894.251 10 0 60919 10800.00000 0 -5757917.815 -11175721.074 -22194122.788 10 0 60919 11700.00000 0 -4665821.068 -13615224.369 -21064305.767 10 0 60919 12600.00000 0 -3818601.576 -15976119.212 -19525576.524 10 0 60919 13500.00000 0 -3214336.696 -18190749.432 -17607975.850 10 0 60919 14400.00000 0 -2838738.804 -20194768.373 -15348857.997 10 0 60919 15300.00000 0 -2665979.340 -21929673.549 -12792158.005 10 0 60919 16200.00000 0 -2660004.189 -23345110.458 -9987534.911 10 0 60919 17100.00000 0 -2776283.452 -24400850.793 -6989407.531 10 0 60919 18000.00000 0 -2963920.781 -25068363.959 -3855901.477 10 0 60919 18900.00000 0 -3168032.758 -25331917.685 -647727.552 10 0 60919 19800.00000 0 -3332297.771 -25189163.109 2572987.166 10 0 60919 20700.00000 0 -3401567.051 -24651180.968 5743893.399 10 0 60919 21600.00000 0 -3324428.128 -23741987.761 8803616.447 10 0 60919 22500.00000 0 -3055613.089 -22497522.989 11692933.294 10 0 60919 23400.00000 0 -2558150.562 -20964159.826 14355908.072 10 0 60919 24300.00000 0 -1805170.982 -19196801.099 16740964.843 10 0 60919 25200.00000 0 -781289.029 -17256639.349 18801877.887 10 0 60919 26100.00000 0 516495.500 -15208673.450 20498661.159 10 0 60919 27000.00000 0 2078417.348 -13119084.192 21798340.473 10 0 60919 27900.00000 0 3882103.629 -11052576.914 22675593.958 10 0 60919 28800.00000 0 5893265.365 -9069800.767 23113248.604 10 0 60919 29700.00000 0 8066896.326 -7224951.101 23102623.129 10 0 60919 30600.00000 0 10348931.768 -5563654.114 22643709.988 10 0 60919 31500.00000 0 12678300.444 -4121221.601 21745192.045 10 0 60919 32400.00000 0 14989286.661 -2921348.535 20424292.341 10 0 60919 33300.00000 0 17214105.763 -1975308.163 18706458.310 10 0 60919 34200.00000 0 19285586.860 -1281678.804 16624884.979 10 0 60919 35100.00000 0 21139851.398 -826614.365 14219884.792 10 0 60919 36000.00000 0 22718875.569 -584647.810 11538114.900 10 0 60919 36900.00000 0 23972828.567 -519994.102 8631675.927 10 0 60919 37800.00000 0 24862087.599 -588297.752 5557099.164 10 0 60919 38700.00000 0 25358843.592 -738750.749 2374241.837 10 0 60919 39600.00000 0 25448228.649 -916490.439 -854887.450 10 0 60919 40500.00000 0 25128916.471 -1065174.453 -4067349.245 10 0 60919 41400.00000 0 24413169.489 -1129621.860 -7200514.550 10 0 60919 42300.00000 0 23326330.206 -1058406.574 -10193301.029 10 0 60919 43200.00000 0 21905778.202 -806290.995 -12987378.336 10 0 60919 44100.00000 0 20199397.281 -336394.782 -15528317.501 10 0 60919 45000.00000 0 18263618.252 377994.850 -17766660.617 10 0 60919 45900.00000 0 16161120.856 1352049.260 -19658889.140 10 0 60919 46800.00000 0 13958292.676 2588519.958 -21168271.484 10 0 60919 47700.00000 0 11722552.773 4077393.193 -22265573.477 10 0 60919 48600.00000 0 9519653.033 5796092.265 -22929618.378 10 0 60919 49500.00000 0 7411070.428 7710218.930 -23147686.425 10 0 60919 50400.00000 0 5451599.014 9774802.426 -22915747.326 10 0 60919 51300.00000 0 3687241.335 11936003.438 -22238522.410 10 0 60919 52200.00000 0 2153485.784 14133201.383 -21129376.547 10 0 60919 53100.00000 0 874039.909 16301377.577 -19610043.136 10 0 60919 54000.00000 0 -139929.838 18373694.812 -17710188.512 10 0 60919 54900.00000 0 -890022.674 20284166.003 -15466825.052 10 0 60919 55800.00000 0 -1390285.557 21970301.073 -12923584.941 10 0 60919 56700.00000 0 -1666368.516 23375622.447 -10129869.029 10 0 60919 57600.00000 0 -1754190.777 24451945.187 -7139887.402 10 0 60919 58500.00000 0 -1698175.391 25161327.657 -4011610.226 10 0 60919 59400.00000 0 -1549127.794 25477612.442 -805648.948 10 0 60919 60300.00000 0 -1361848.318 25387494.235 2415910.861 10 0 60919 61200.00000 0 -1192579.435 24891071.007 5590702.892 10 0 60919 62100.00000 0 -1096395.216 24001856.135 8657277.283 10 0 60919 63000.00000 0 -1124642.643 22746251.342 11556279.184 10 0 60919 63900.00000 0 -1322542.179 21162502.482 14231586.719 10 0 60919 64800.00000 0 -1727048.254 19299181.357 16631387.260 10 0 60919 65700.00000 0 -2365059.625 17213256.147 18709172.137 10 0 60919 66600.00000 0 -3252055.077 14967829.829 20424631.354 10 0 60919 67500.00000 0 -4391212.533 12629639.478 21744431.806 10 0 60919 68400.00000 0 -5773049.771 10266419.114 22642864.424 10 0 60919 69300.00000 0 -7375603.567 7944234.451 23102347.959 10 0 60919 70200.00000 0 -9165141.961 5724899.108 23113779.529 10 0 60919 71100.00000 0 -11097382.335 3663578.722 22676724.602 10 0 60919 72000.00000 0 -13119166.921 1806682.009 21799441.828 10 0 60919 72900.00000 0 -15170528.211 190126.197 20498740.985 10 0 60919 73800.00000 0 -17187060.046 -1161950.804 18799675.266 10 0 60919 74700.00000 0 -19102496.894 -2237977.469 16735072.269 10 0 60919 75600.00000 0 -20851394.355 -3039201.565 14344911.182 10 0 60919 76500.00000 0 -22371798.959 -3579397.846 11675556.841 10 0 60919 77400.00000 0 -23607794.876 -3884042.393 8778864.507 10 0 60919 78300.00000 0 -24511819.664 -3988988.302 5711172.172 10 0 60919 79200.00000 0 -25046650.329 -3938698.796 2532199.905 10 0 60919 80100.00000 0 -25186974.452 -3784113.159 -696121.774 10 0 60919 81000.00000 0 -24920478.651 -3580236.929 -3910870.722 10 0 60919 81900.00000 0 -24248407.064 -3383560.017 -7049374.053 10 0 60919 82800.00000 0 -23185565.326 -3249414.048 -10050445.197 10 0 60919 83700.00000 0 -21759769.366 -3229382.966 -12855591.358 10 0 60919 84600.00000 0 -20010762.252 -3368878.671 -15410166.215 10 0 60919 85500.00000 0 -17988645.196 -3704986.170 -17664444.060 10 0 60920 0.00000 0 -15751889.791 -4264670.874 -19574593.386 10 0 60920 900.00000 0 -13365014.743 -5063425.220 -21103531.474 10 0 60920 1800.00000 0 -10896028.642 -6104411.563 -22221640.896 10 0 60920 2700.00000 0 -8413742.698 -7378138.636 -22907337.925 10 0 60920 3600.00000 0 -5985069.222 -8862684.349 -23147480.006 10 0 60920 4500.00000 0 -3672417.479 -10524455.394 -22937606.602 10 0 60920 5400.00000 0 -1531295.159 -12319451.210 -22282009.819 10 0 60920 6300.00000 0 391785.749 -14194978.816 -21193634.698 10 0 60920 7200.00000 0 2061013.094 -16091746.243 -19693812.332 10 0 60920 8100.00000 0 3452519.859 -17946246.781 -17811832.005 10 0 60920 9000.00000 0 4555121.149 -19693334.327 -15584361.479 10 0 60920 9900.00000 0 5370514.714 -21268882.428 -13054727.272 10 0 60920 10800.00000 0 5912939.245 -22612416.394 -10272069.235 10 0 60920 11700.00000 0 6208307.131 -23669609.176 -7290385.963 10 0 60920 12600.00000 0 6292850.088 -24394537.508 -4167489.501 10 0 60920 13500.00000 0 6211336.137 -24751604.932 -963889.406 10 0 60920 14400.00000 0 6014934.006 -24717052.183 2258372.635 10 0 60920 15300.00000 0 5758815.386 -24279992.555 5436915.498 10 0 60920 16200.00000 0 5499596.184 -23442929.564 8510216.192 10 0 60920 17100.00000 0 5292724.330 -22221735.526 11418789.885 10 0 60920 18000.00000 0 5189923.769 -20645091.897 14106330.362 10 0 60920 18900.00000 0 5236801.757 -18753414.310 16520789.768 10 0 60920 19800.00000 0 5470719.836 -16597306.256 18615377.708 10 0 60920 20700.00000 0 5919017.866 -14235604.747 20349461.218 10 0 60920 21600.00000 0 6597666.064 -11733097.838 21689348.973 10 0 60920 22500.00000 0 7510402.367 -9158007.352 22608945.114 10 0 60920 23400.00000 0 8648392.599 -6579339.829 23090260.272 10 0 60920 24300.00000 0 9990429.400 -4064214.240 23123769.785 10 0 60920 25200.00000 0 11503663.760 -1675276.111 22708611.698 10 0 60920 26100.00000 0 13144840.851 531695.401 21852619.763 10 0 60920 27000.00000 0 14861990.809 2509888.667 20572189.605 10 0 60920 27900.00000 0 16596505.929 4223181.723 18891979.098 10 0 60920 28800.00000 0 18285519.030 5647413.504 16844447.157 10 0 60920 29700.00000 0 19864484.595 6771150.739 14469238.292 10 0 60920 30600.00000 0 21269855.018 7595917.977 11812423.425 10 0 60920 31500.00000 0 22441739.409 8135880.639 8925610.672 10 0 60920 32400.00000 0 23326432.467 8416994.237 5864942.746 10 0 60920 33300.00000 0 23878705.631 8475655.641 2690000.398 10 0 60920 34200.00000 0 24063762.389 8356913.841 -537366.265 10 0 60920 35100.00000 0 23858773.454 8112316.790 -3754254.853 10 0 60920 36000.00000 0 23253925.407 7797486.830 -6897951.076 10 0 60920 36900.00000 0 22252937.100 7469529.120 -9907166.598 10 0 60920 37800.00000 0 20873021.045 7184384.853 -12723248.536 10 0 60920 38700.00000 0 19144290.946 6994243.328 -15291335.435 10 0 60920 39600.00000 0 17108640.301 6945124.393 -17561435.820 10 0 60920 40500.00000 0 14818139.716 7074735.086 -19489407.383 10 0 60920 41400.00000 0 12333020.932 7410692.278 -21037817.256 10 0 60920 42300.00000 0 9719333.017 7969187.028 -22176666.638 10 0 60920 43200.00000 0 7046369.592 8754147.198 -22883966.141 10 0 60920 44100.00000 0 4383975.183 9756933.372 -23146151.529 10 0 60920 45000.00000 0 1799843.301 10956580.351 -22958332.879 10 0 60920 45900.00000 0 -643081.469 12320573.319 -22324373.594 10 0 60920 46800.00000 0 -2888990.056 13806125.331 -21256799.021 10 0 60920 47700.00000 0 -4891286.190 15361901.803 -19776537.647 10 0 60920 48600.00000 0 -6614269.842 16930119.172 -17912500.950 10 0 60920 49500.00000 0 -8034358.959 18448929.488 -15701010.875 10 0 60920 50400.00000 0 -9140801.095 19854990.988 -13185086.647 10 0 60920 51300.00000 0 -9935847.826 21086117.219 -10413605.122 10 0 60920 52200.00000 0 -10434387.193 22083894.247 -7440351.074 10 0 60920 53100.00000 0 -10663051.809 22796156.913 -4322975.850 10 0 60920 54000.00000 0 -10658841.930 23179221.225 -1121884.321 10 0 60920 54900.00000 0 -10467322.728 23199780.104 2100928.655 10 0 60920 55800.00000 0 -10140472.451 22836383.779 5283070.178 10 0 60920 56700.00000 0 -9734272.422 22080443.370 8362947.211 10 0 60920 57600.00000 0 -9306140.288 20936715.869 11280948.020 10 0 60920 58500.00000 0 -8912314.248 19423250.150 13980585.060 10 0 60920 59400.00000 0 -8605297.807 17570795.767 16409578.145 10 0 60920 60300.00000 0 -8431472.019 15421698.300 18520857.891 10 0 60920 61200.00000 0 -8428975.187 13028326.032 20273470.873 10 0 60920 62100.00000 0 -8625938.961 10451091.900 21633369.786 10 0 60920 63000.00000 0 -9039155.173 7756151.171 22574073.884 10 0 60920 63900.00000 0 -9673230.052 5012868.673 23077187.178 10 0 60920 64800.00000 0 -10520262.502 2291158.971 23132764.276 10 0 60920 65700.00000 0 -11560061.608 -341191.759 22739516.322 10 0 60920 66600.00000 0 -12760896.193 -2821112.203 21904852.130 10 0 60920 67500.00000 0 -14080747.187 -5092634.215 20644752.527 10 0 60920 68400.00000 0 -15469012.414 -7108984.168 18983478.810 10 0 60920 69300.00000 0 -16868594.151 -8834290.312 16953119.372 10 0 60920 70200.00000 0 -18218283.266 -10244834.723 14592981.655 10 0 60920 71100.00000 0 -19455340.632 -11329797.076 11948839.819 10 0 60920 72000.00000 0 -20518167.392 -12091458.570 9072051.606 10 0 60920 72900.00000 0 -21348951.187 -12544857.072 6018560.970 10 0 60920 73800.00000 0 -21896175.661 -12716907.843 2847805.693 10 0 60920 74700.00000 0 -22116885.840 -12645027.136 -378448.235 10 0 60920 75600.00000 0 -21978611.886 -12375317.478 -3597321.859 10 0 60920 76500.00000 0 -21460868.097 -11960392.491 -6746063.089 10 0 60920 77400.00000 0 -20556162.089 -11456934.830 -9763285.275 10 0 60920 78300.00000 0 -19270470.158 -10923092.447 -12590178.707 10 0 60920 79200.00000 0 -17623157.771 -10415825.367 -15171669.788 10 0 60920 80100.00000 0 -15646348.109 -9988317.139 -17457503.925 10 0 60920 81000.00000 0 -13383765.209 -9687562.108 -19403230.065 10 0 60920 81900.00000 0 -10889100.686 -9552231.720 -20971067.231 10 0 60920 82800.00000 0 -8223973.172 -9610910.717 -22130636.145 10 0 60920 83700.00000 0 -5455566.559 -9880777.827 -22859542.198 10 0 60920 84600.00000 0 -2654046.279 -10366786.315 -23143799.255 10 0 60920 85500.00000 0 110138.255 -11061378.194 -22978087.165 10 0 60921 0.00000 0 2768952.538 -11944743.092 -22365839.308 10 0 60921 900.00000 0 5259366.836 -12985610.342 -21319159.356 10 0 60921 1800.00000 0 7525726.835 -14142538.725 -19858570.972 10 0 60921 2700.00000 0 9521812.750 -15365650.380 -18012605.269 10 0 60921 3600.00000 0 11212499.635 -16598734.282 -15817235.577 10 0 60921 4500.00000 0 12574953.479 -17781631.030 -13315170.849 10 0 60921 5400.00000 0 13599315.432 -18852798.709 -10555021.827 10 0 60921 6300.00000 0 14288848.125 -19751952.343 -7590356.279 10 0 60921 7200.00000 0 14659540.256 -20422666.555 -4478661.630 10 0 60921 8100.00000 0 14739188.087 -20814832.820 -1280234.892 10 0 60921 9000.00000 0 14565994.032 -20886868.831 1942978.973 10 0 60921 9900.00000 0 14186742.317 -20607587.888 5128578.168 10 0 60921 10800.00000 0 13654629.086 -19957650.423 8214902.252 10 0 60921 11700.00000 0 13026838.349 -18930537.012 11142214.916 10 0 60921 12600.00000 0 12361965.533 -17533002.062 13853849.270 10 0 60921 13500.00000 0 11717396.462 -15784988.699 16297294.421 10 0 60921 14400.00000 0 11146751.301 -13719007.463 18425203.227 10 0 60921 15300.00000 0 10697500.209 -11379003.449 20196302.650 10 0 60921 16200.00000 0 10408850.348 -8818757.376 21576189.863 10 0 60921 17100.00000 0 10309992.697 -6099885.182 22537999.318 10 0 60921 18000.00000 0 10418782.442 -3289517.219 23062928.132 10 0 60921 18900.00000 0 10740908.904 -457751.353 23140609.579 10 0 60921 19800.00000 0 11269590.911 2325016.233 22769326.995 10 0 60921 20700.00000 0 11985811.875 4990773.335 21956063.088 10 0 60921 21600.00000 0 12859086.486 7476476.995 20716382.495 10 0 60921 22500.00000 0 13848728.722 9726435.060 19074148.365 10 0 60921 23400.00000 0 14905569.699 11694385.218 17061076.836 10 0 60921 24300.00000 0 15974054.653 13345184.787 14716136.430 10 0 60921 25200.00000 0 16994631.862 14656040.253 12084802.560 10 0 60921 26100.00000 0 17906333.297 15617224.518 9218180.510 10 0 60921 27000.00000 0 18649437.963 16232251.233 6172013.282 10 0 60921 27900.00000 0 19168104.672 16517498.463 3005593.423 10 0 60921 28800.00000 0 19412861.601 16501297.472 -219399.521 10 0 60921 29700.00000 0 19342845.625 16222525.391 -3440112.365 10 0 60921 30600.00000 0 18927694.783 15728762.059 -6593757.497 10 0 60921 31500.00000 0 18149011.885 15074090.193 -9618852.132 10 0 60921 32400.00000 0 17001335.699 14316633.571 -12456431.744 10 0 60921 33300.00000 0 15492577.320 13515939.182 -15051212.430 10 0 60921 34200.00000 0 13643902.429 12730315.917 -17352678.113 10 0 60921 35100.00000 0 11489063.940 12014243.967 -19316070.453 10 0 60921 36000.00000 0 9073213.102 11415965.698 -20903261.657 10 0 60921 36900.00000 0 6451239.260 10975360.511 -22083493.134 10 0 60921 37800.00000 0 3685708.294 10722193.614 -22833966.086 10 0 60921 38700.00000 0 844486.414 10674812.207 -23140273.351 10 0 60921 39600.00000 0 -2001851.160 10839343.212 -22996665.211 10 0 60921 40500.00000 0 -4782718.587 11209425.184 -22406145.260 10 0 60921 41400.00000 0 -7430212.894 11766484.292 -21380395.751 10 0 60921 42300.00000 0 -9881691.249 12480541.362 -19939535.088 10 0 60921 43200.00000 0 -12082126.113 13311514.733 -18111713.234 10 0 60921 44100.00000 0 -13986141.963 14210963.043 -15932553.709 10 0 60921 45000.00000 0 -15559650.790 15124193.894 -13444453.634 10 0 60921 45900.00000 0 -16781020.489 15992649.254 -10695755.771 10 0 60921 46800.00000 0 -17641729.750 16756467.212 -7739808.776 10 0 60921 47700.00000 0 -18146484.319 17357112.495 -4633933.868 10 0 60921 48600.00000 0 -18312791.922 17739965.560 -1438317.771 10 0 60921 49500.00000 0 -18170015.371 17856761.932 1785146.977 10 0 60921 50400.00000 0 -17757944.929 17667779.817 4974052.310 10 0 60921 51300.00000 0 -17124950.747 17143684.557 8066673.074 10 0 60921 52200.00000 0 -16325793.315 16266952.769 11003151.136 10 0 60921 53100.00000 0 -15419183.897 15032816.417 13726643.050 10 0 60921 54000.00000 0 -14465196.955 13449686.848 16184409.964 10 0 60921 54900.00000 0 -13522642.567 11539040.180 18328829.662 10 0 60921 55800.00000 0 -12646508.320 9334767.557 20118312.025 10 0 60921 56700.00000 0 -11885577.248 6882015.655 21518101.017 10 0 60921 57600.00000 0 -11280321.082 4235563.666 22500948.312 10 0 60921 58500.00000 0 -10861156.862 1457802.073 23047645.799 10 0 60921 59400.00000 0 -10647140.058 -1383605.133 23147406.661 10 0 60921 60300.00000 0 -10645149.483 -4218279.900 22798087.196 10 0 60921 61200.00000 0 -10849599.142 -6975806.900 22006244.261 10 0 60921 62100.00000 0 -11242690.359 -9588418.033 20787026.016 10 0 60921 63000.00000 0 -11795195.126 -11993574.202 19163896.617 10 0 60921 63900.00000 0 -12467739.304 -14136337.455 17168198.561 10 0 60921 64800.00000 0 -13212533.101 -15971434.750 14838559.552 10 0 60921 65700.00000 0 -13975477.076 -17464926.847 12220153.910 10 0 60921 66600.00000 0 -14698555.421 -18595411.883 9363831.735 10 0 60921 67500.00000 0 -15322415.528 -19354712.449 6325132.056 10 0 60921 68400.00000 0 -15789024.229 -19748016.653 3163198.953 10 0 60921 69300.00000 0 -16044287.138 -19793466.792 -60377.839 10 0 60921 70200.00000 0 -16040518.639 -19521212.934 -3282774.346 10 0 60921 71100.00000 0 -15738655.951 -18971971.786 -6441170.904 10 0 60921 72000.00000 0 -15110121.552 -18195152.597 -9473992.030 10 0 60921 72900.00000 0 -14138253.206 -17246630.671 -12322121.748 10 0 60921 73800.00000 0 -12819239.453 -16186264.191 -14930069.053 10 0 60921 74700.00000 0 -11162519.818 -15075261.059 -17247059.358 10 0 60921 75600.00000 0 -9190632.043 -13973508.639 -19228029.673 10 0 60921 76500.00000 0 -6938512.391 -12936980.496 -20834507.591 10 0 60921 77400.00000 0 -4452278.438 -12015330.463 -22035356.882 10 0 60921 78300.00000 0 -1787545.641 -11249775.800 -22807375.640 10 0 60921 79200.00000 0 992651.534 -10671358.373 -23135736.146 10 0 60921 80100.00000 0 3820246.719 -10299656.242 -23014258.981 10 0 60921 81000.00000 0 6624737.314 -10141998.596 -22445517.328 10 0 60921 81900.00000 0 9335880.768 -10193215.429 -21440770.712 10 0 60921 82800.00000 0 11886379.717 -10435930.767 -20019730.673 10 0 60921 83700.00000 0 14214445.235 -10841385.339 -18210163.988 10 0 60921 84600.00000 0 16266132.872 -11370752.540 -16047341.971 10 0 60921 85500.00000 0 17997355.892 -11976891.032 -13573347.180 10 0 60922 0.00000 0 19375493.704 -12606459.238 -10836251.619 10 0 60922 900.00000 0 20380531.182 -13202302.532 -7889181.025 10 0 60922 1800.00000 0 21005681.660 -13706011.572 -4789287.134 10 0 60922 2700.00000 0 21257472.034 -14060545.341 -1596642.757 10 0 60922 3600.00000 0 21155286.267 -14212807.957 1626915.628 10 0 60922 4500.00000 0 20730388.645 -14116071.593 4818977.205 10 0 60922 5400.00000 0 20024468.613 -13732143.976 7917755.391 10 0 60922 6300.00000 0 19087768.743 -13033189.678 10863273.190 10 0 60922 7200.00000 0 17976874.489 -12003128.773 13598513.132 10 0 60922 8100.00000 0 16752258.083 -10638553.897 16070510.499 10 0 60922 9000.00000 0 15475678.925 -8949126.570 18231369.613 10 0 60922 9900.00000 0 14207548.577 -6957435.053 20039184.412 10 0 60922 10800.00000 0 13004369.805 -4698317.998 21458846.345 10 0 60922 11700.00000 0 11916356.032 -2217680.087 22462724.561 10 0 60922 12600.00000 0 10985330.187 429153.338 23031205.568 10 0 60922 13500.00000 0 10242990.530 3179476.657 23153081.911 10 0 60922 14400.00000 0 9709616.034 5965557.030 22825781.944 10 0 60922 15300.00000 0 9393265.981 8717204.542 22055435.424 10 0 60922 16200.00000 0 9289508.068 11364454.557 20856772.482 10 0 60922 17100.00000 0 9381687.511 13840252.148 19252856.466 10 0 60922 18000.00000 0 9641727.073 16083027.739 17274654.189 10 0 60922 18900.00000 0 10031425.569 18039056.892 14960450.303 10 0 60922 19800.00000 0 10504201.174 19664505.545 12355115.652 10 0 60922 20700.00000 0 11007206.676 20927074.495 9509242.640 10 0 60922 21600.00000 0 11483727.473 21807173.384 6478163.722 10 0 60922 22500.00000 0 11875760.535 22298573.975 3320871.846 10 0 60922 23400.00000 0 12126664.151 22408514.475 98864.272 10 0 60922 24300.00000 0 12183764.781 22157250.061 -3125066.846 10 0 60922 25200.00000 0 12000808.677 21577068.551 -6288072.281 10 0 60922 26100.00000 0 11540152.359 20710813.249 -9328486.150 10 0 60922 27000.00000 0 10774597.108 19609976.302 -12187043.085 10 0 60922 27900.00000 0 9688787.986 18332444.436 -14808046.776 10 0 60922 28800.00000 0 8280116.668 16939993.809 -17140465.664 10 0 60922 29700.00000 0 6559088.869 15495641.319 -19138933.404 10 0 60922 30600.00000 0 4549140.184 14060965.451 -20764634.067 10 0 60922 31500.00000 0 2285907.804 12693510.638 -21986054.696 10 0 60922 32400.00000 0 -184011.254 11444384.915 -22779591.028 10 0 60922 33300.00000 0 -2804763.180 10356151.834 -23129995.350 10 0 60922 34200.00000 0 -5513330.115 9461104.579 -23030658.889 10 0 60922 35100.00000 0 -8241925.032 8779993.516 -22483724.481 10 0 60922 36000.00000 0 -10920588.907 8321258.921 -21500028.641 10 0 60922 36900.00000 0 -13479882.240 8080799.125 -20098875.379 10 0 60922 37800.00000 0 -15853559.520 8042281.708 -18307647.224 10 0 60922 38700.00000 0 -17981116.309 8177982.670 -16161261.854 10 0 60922 39600.00000 0 -19810104.191 8450116.460 -13701485.521 10 0 60922 40500.00000 0 -21298118.762 8812599.474 -10976116.969 10 0 60922 41400.00000 0 -22414379.580 9213171.741 -8038057.857 10 0 60922 42300.00000 0 -23140837.978 9595786.802 -4944287.705 10 0 60922 43200.00000 0 -23472768.307 9903168.850 -1754763.083 10 0 60922 44100.00000 0 -23418819.568 10079429.507 1468737.976 10 0 60922 45000.00000 0 -23000526.655 10072634.247 4663804.338 10 0 60922 45900.00000 0 -22251302.758 9837210.816 7768590.489 10 0 60922 46800.00000 0 -21214955.740 9336098.605 10723003.099 10 0 60922 47700.00000 0 -19943790.855 8542548.820 13469853.248 10 0 60922 48600.00000 0 -18496379.062 7441499.692 15955952.897 10 0 60922 49500.00000 0 -16935083.748 6030468.559 18133135.382 10 0 60922 50400.00000 0 -15323448.522 4319922.485 19959181.030 10 0 60922 51300.00000 0 -13723554.290 2333110.458 21398630.871 10 0 60922 52200.00000 0 -12193455.006 105362.281 22423473.340 10 0 60922 53100.00000 0 -10784798.332 -2317118.879 23013691.021 10 0 60922 54000.00000 0 -9540729.844 -4878922.487 23157656.884 10 0 60922 54900.00000 0 -8494167.947 -7517488.450 22852371.977 10 0 60922 55800.00000 0 -7666521.573 -10165473.569 22103539.152 10 0 60922 56700.00000 0 -7066904.626 -12753330.400 20925470.252 10 0 60922 57600.00000 0 -6691880.709 -15211992.923 19340827.097 10 0 60922 58500.00000 0 -6525749.714 -17475558.330 17380199.649 10 0 60922 59400.00000 0 -6541365.174 -19483853.655 15081527.917 10 0 60922 60300.00000 0 -6701448.854 -21184780.050 12489377.279 10 0 60922 61200.00000 0 -6960347.785 -22536336.065 9654080.131 10 0 60922 62100.00000 0 -7266159.778 -23508234.214 6630759.764 10 0 60922 63000.00000 0 -7563137.284 -24083041.894 3478255.205 10 0 60922 63900.00000 0 -7794267.032 -24256797.557 257968.299 10 0 60922 64800.00000 0 -7903914.812 -24039075.355 -2967343.676 10 0 60922 65700.00000 0 -7840421.576 -23452495.029 -6134805.039 10 0 60922 66600.00000 0 -7558538.757 -22531697.735 -9182662.671 10 0 60922 67500.00000 0 -7021597.514 -21321831.551 -12051504.974 10 0 60922 68400.00000 0 -6203318.013 -19876611.528 -14685433.436 10 0 60922 69300.00000 0 -5089180.450 -18256037.474 -17033162.484 10 0 60922 70200.00000 0 -3677298.518 -16523867.126 -19049025.154 10 0 60922 71100.00000 0 -1978757.543 -14744952.570 -20693864.389 10 0 60922 72000.00000 0 -17402.531 -12982553.154 -21935792.490 10 0 60922 72900.00000 0 2170915.092 -11295738.541 -22750804.327 10 0 60922 73800.00000 0 4539600.331 -9736991.120 -23123233.171 10 0 60922 74700.00000 0 7033033.915 -8350107.891 -23046041.329 10 0 60922 75600.00000 0 9588675.878 -7168488.692 -22520941.228 10 0 60922 76500.00000 0 12139465.484 -6213880.869 -21558345.832 10 0 60922 77400.00000 0 14616417.428 -5495630.989 -20177150.636 10 0 60922 78300.00000 0 16951306.485 -5010472.634 -18404352.511 10 0 60922 79200.00000 0 19079329.409 -4742856.842 -16274513.664 10 0 60922 80100.00000 0 20941634.132 -4665809.095 -13829081.778 10 0 60922 81000.00000 0 22487612.089 -4742274.861 -11115579.922 10 0 60922 81900.00000 0 23676859.550 -4926895.529 -8186682.107 10 0 60922 82800.00000 0 24480727.650 -5168138.861 -5099192.470 10 0 60922 83700.00000 0 24883397.996 -5410693.512 -1912947.697 10 0 60922 84600.00000 0 24882440.385 -5598026.485 1310336.381 10 0 60922 85500.00000 0 24488830.625 -5674995.762 4508252.049 99